| time (UTC) | temp F | wind direction | speed MPH | gust MPH | rain 1hr in | rain 24hr in | rain mn in | humidity % | barometer mb |
| 20260904123015 | 52 | 51 | 0.0 | 0.0 | 0.00 | 0.28 | 0.00 | 96 | 1007.5 |
| 20260904121513 | 52 | 51 | 0.0 | 0.0 | 0.00 | 0.28 | 0.00 | 95 | 1007.3 |
| 20260904120012 | 52 | 51 | 0.0 | 0.0 | 0.00 | 0.28 | 0.00 | 95 | 1007.2 |
| 20260904114511 | 52 | 51 | 0.0 | 0.0 | 0.00 | 0.28 | 0.00 | 95 | 1007.2 |
| 20260904113013 | 52 | 51 | 0.0 | 0.0 | 0.00 | 0.28 | 0.00 | 95 | 1007.0 |
| 20260904111509 | 52 | 51 | 0.0 | 0.0 | 0.00 | 0.28 | 0.00 | 95 | 1006.8 |
| 20260904110007 | 52 | 51 | 0.0 | 1.0 | 0.00 | 0.28 | 0.00 | 95 | 1006.7 |
| 20260904104512 | 52 | 51 | 0.0 | 0.0 | 0.00 | 0.28 | 0.00 | 95 | 1006.7 |
| 20260904103007 | 52 | 51 | 0.0 | 0.0 | 0.00 | 0.28 | 0.00 | 95 | 1006.6 |
| 20260904101505 | 52 | 51 | 0.0 | 0.0 | 0.00 | 0.28 | 0.00 | 95 | 1006.6 |
| 20260904100006 | 52 | 51 | 0.0 | 0.0 | 0.00 | 0.28 | 0.00 | 95 | 1006.5 |
| 20260904094503 | 52 | 51 | 0.0 | 1.0 | 0.00 | 0.28 | 0.00 | 95 | 1006.5 |
| 20260904093001 | 52 | 51 | 0.0 | 2.0 | 0.00 | 0.28 | 0.00 | 95 | 1006.4 |
| 20260904091610 | 52 | 51 | 0.0 | 0.0 | 0.00 | 0.28 | 0.00 | 95 | 1006.5 |
| 20260904090058 | 52 | 51 | 0.0 | 0.0 | 0.00 | 0.28 | 0.00 | 95 | 1006.5 |
| 20260904084557 | 53 | 51 | 0.0 | 1.0 | 0.00 | 0.28 | 0.00 | 95 | 1006.5 |
| 20260904083109 | 53 | 51 | 0.0 | 0.0 | 0.00 | 0.28 | 0.00 | 95 | 1006.5 |
| 20260904081555 | 53 | 51 | 0.0 | 0.0 | 0.00 | 0.28 | 0.00 | 95 | 1006.4 |
| 20260904080054 | 53 | 51 | 0.0 | 0.0 | 0.00 | 0.28 | 0.00 | 95 | 1006.4 |
| 20260904074605 | 53 | 51 | 0.0 | 0.0 | 0.00 | 0.28 | 0.00 | 95 | 1006.4 |
| 20260904073052 | 53 | 51 | 0.0 | 0.0 | 0.00 | 0.28 | 0.00 | 95 | 1006.5 |
| 20260904071551 | 53 | 51 | 0.0 | 0.0 | 0.00 | 0.28 | 0.00 | 95 | 1006.4 |
| 20260904070100 | 53 | 51 | 0.0 | 0.0 | 0.00 | 0.28 | 0.00 | 95 | 1006.4 |
| 20260904064550 | 53 | 51 | 0.0 | 0.0 | 0.00 | 0.28 | 0.28 | 94 | 1006.5 |
| 20260904063053 | 53 | 51 | 0.0 | 0.0 | 0.00 | 0.28 | 0.28 | 94 | 1006.6 |
| 20260904061547 | 53 | 51 | 0.0 | 0.0 | 0.00 | 0.28 | 0.28 | 94 | 1006.5 |
| 20260904060046 | 53 | 51 | 0.0 | 0.0 | 0.00 | 0.28 | 0.28 | 94 | 1006.6 |
| 20260904054546 | 53 | 51 | 0.0 | 1.0 | 0.00 | 0.28 | 0.28 | 94 | 1006.6 |
| 20260904053045 | 53 | 51 | 1.0 | 2.0 | 0.00 | 0.28 | 0.28 | 94 | 1006.5 |
| 20260904051544 | 53 | 51 | 0.0 | 1.0 | 0.00 | 0.28 | 0.28 | 93 | 1006.4 |
| 20260904050042 | 54 | 51 | 0.0 | 0.0 | 0.00 | 0.28 | 0.28 | 93 | 1006.5 |
| 20260904044542 | 54 | 51 | 0.0 | 0.0 | 0.00 | 0.28 | 0.28 | 93 | 1006.5 |
| 20260904043040 | 54 | 51 | 0.0 | 0.0 | 0.00 | 0.28 | 0.28 | 92 | 1006.5 |
| 20260904041540 | 55 | 51 | 0.0 | 0.0 | 0.00 | 0.28 | 0.28 | 92 | 1006.6 |
| 20260904040046 | 55 | 51 | 0.0 | 0.0 | 0.00 | 0.28 | 0.28 | 92 | 1006.6 |
| 20260904034539 | 55 | 51 | 0.0 | 0.0 | 0.00 | 0.28 | 0.28 | 91 | 1006.4 |
| 20260904033039 | 55 | 51 | 0.0 | 1.0 | 0.00 | 0.28 | 0.28 | 90 | 1006.2 |
| 20260904031538 | 56 | 51 | 0.0 | 0.0 | 0.00 | 0.28 | 0.28 | 88 | 1006.0 |
| 20260904030038 | 56 | 51 | 0.0 | 1.0 | 0.00 | 0.28 | 0.28 | 87 | 1005.9 |
| 20260904024537 | 58 | 51 | 0.0 | 1.0 | 0.00 | 0.28 | 0.28 | 85 | 1005.9 |
| 20260904023044 | 58 | 53 | 0.0 | 3.0 | 0.00 | 0.28 | 0.28 | 84 | 1006.0 |
| 20260904021540 | 59 | 255 | 0.0 | 1.0 | 0.00 | 0.28 | 0.28 | 82 | 1005.9 |
| 20260904020036 | 60 | 303 | 1.0 | 3.0 | 0.00 | 0.28 | 0.28 | 79 | 1005.8 |
| 20260904014549 | 60 | 80 | 2.0 | 5.0 | 0.00 | 0.28 | 0.28 | 76 | 1005.6 |
| 20260904013039 | 60 | 341 | 1.0 | 4.0 | 0.00 | 0.28 | 0.28 | 76 | 1005.6 |
| 20260904011533 | 60 | 190 | 0.0 | 2.0 | 0.00 | 0.28 | 0.28 | 79 | 1005.6 |
| 20260904010033 | 60 | 118 | 0.0 | 2.0 | 0.00 | 0.28 | 0.28 | 79 | 1005.6 |
| 20260904004534 | 60 | 16 | 1.0 | 3.0 | 0.00 | 0.28 | 0.28 | 79 | 1005.7 |
| 20260904003032 | 59 | 127 | 0.0 | 3.0 | 0.00 | 0.28 | 0.28 | 81 | 1005.7 |
| 20260904001533 | 59 | 168 | 0.0 | 3.0 | 0.00 | 0.28 | 0.28 | 77 | 1005.8 |
| 20260904000031 | 59 | 217 | 1.0 | 3.0 | 0.00 | 0.28 | 0.28 | 80 | 1005.7 |
| 20260903234529 | 60 | 163 | 0.0 | 3.0 | 0.00 | 0.30 | 0.28 | 79 | 1005.9 |
| 20260903233028 | 59 | 84 | 0.0 | 7.0 | 0.00 | 0.30 | 0.28 | 76 | 1006.0 |
| 20260903231528 | 59 | 105 | 1.0 | 5.0 | 0.00 | 0.30 | 0.28 | 80 | 1006.2 |
| 20260903230028 | 59 | 61 | 0.0 | 6.0 | 0.00 | 0.30 | 0.28 | 79 | 1006.1 |
| 20260903224524 | 60 | 225 | 1.0 | 5.0 | 0.00 | 0.30 | 0.28 | 81 | 1006.4 |
| 20260903223026 | 59 | 142 | 0.0 | 6.0 | 0.00 | 0.30 | 0.28 | 82 | 1006.4 |
| 20260903221525 | 59 | 167 | 1.0 | 3.0 | 0.01 | 0.30 | 0.28 | 84 | 1006.2 |
| 20260903220021 | 58 | 103 | 2.0 | 6.0 | 0.03 | 0.30 | 0.28 | 88 | 1006.3 |
| 20260903214521 | 57 | 137 | 1.0 | 4.0 | 0.03 | 0.31 | 0.28 | 91 | 1006.3 |
| 20260903213020 | 56 | 98 | 1.0 | 6.0 | 0.03 | 0.31 | 0.28 | 89 | 1006.4 |
| 20260903211519 | 59 | 101 | 3.0 | 11.0 | 0.02 | 0.30 | 0.28 | 82 | 1006.4 |
| 20260903210019 | 62 | 53 | 2.0 | 6.0 | 0.00 | 0.28 | 0.26 | 76 | 1005.8 |
| 20260903204519 | 62 | 250 | 1.0 | 9.0 | 0.00 | 0.30 | 0.26 | 77 | 1005.6 |
| 20260903203017 | 61 | 51 | 1.0 | 5.0 | 0.00 | 0.30 | 0.26 | 76 | 1005.8 |
| 20260903201515 | 61 | 165 | 1.0 | 6.0 | 0.00 | 0.30 | 0.26 | 77 | 1005.9 |
| 20260903200013 | 61 | 142 | 1.0 | 6.0 | 0.00 | 0.30 | 0.26 | 82 | 1006.0 |
| 20260903194511 | 62 | 105 | 2.0 | 8.0 | 0.00 | 0.38 | 0.26 | 82 | 1006.1 |
| 20260903193007 | 60 | 184 | 2.0 | 6.0 | 0.00 | 0.38 | 0.26 | 85 | 1006.1 |
| 20260903191505 | 59 | 144 | 0.0 | 2.0 | 0.00 | 0.38 | 0.26 | 89 | 1006.1 |
| 20260903190004 | 60 | 297 | 1.0 | 3.0 | 0.00 | 0.44 | 0.26 | 90 | 1006.1 |
| 20260903184503 | 59 | 30 | 0.0 | 2.0 | 0.00 | 0.44 | 0.26 | 93 | 1006.1 |
| 20260903183001 | 58 | 45 | 0.0 | 5.0 | 0.00 | 0.44 | 0.26 | 90 | 1006.1 |
| 20260903181602 | 59 | 100 | 0.0 | 5.0 | 0.06 | 0.44 | 0.26 | 92 | 1006.2 |
| 20260903180058 | 58 | 16 | 0.0 | 4.0 | 0.09 | 0.44 | 0.26 | 92 | 1006.5 |
| 20260903174553 | 56 | 162 | 1.0 | 3.0 | 0.10 | 0.48 | 0.26 | 95 | 1006.4 |
| 20260903173053 | 54 | 36 | 0.0 | 3.0 | 0.10 | 0.48 | 0.26 | 94 | 1006.4 |
| 20260903171552 | 55 | 84 | 1.0 | 4.0 | 0.04 | 0.41 | 0.19 | 93 | 1006.6 |
| 20260903170049 | 55 | 130 | 1.0 | 3.0 | 0.03 | 0.39 | 0.17 | 94 | 1006.4 |
| 20260903164548 | 55 | 158 | 0.0 | 3.0 | 0.02 | 0.38 | 0.16 | 94 | 1006.3 |
| 20260903163047 | 55 | 60 | 1.0 | 3.0 | 0.03 | 0.38 | 0.16 | 94 | 1006.4 |
| 20260903161545 | 55 | 81 | 1.0 | 3.0 | 0.02 | 0.37 | 0.15 | 94 | 1006.5 |
| 20260903160045 | 55 | 47 | 1.0 | 3.0 | 0.01 | 0.36 | 0.14 | 94 | 1006.5 |
| 20260903154543 | 55 | 176 | 0.0 | 2.0 | 0.01 | 0.36 | 0.14 | 94 | 1006.4 |
| 20260903153042 | 55 | 204 | 0.0 | 3.0 | 0.01 | 0.35 | 0.13 | 95 | 1006.3 |
| 20260903151541 | 55 | 93 | 0.0 | 4.0 | 0.01 | 0.35 | 0.13 | 95 | 1006.2 |
| 20260903150059 | 54 | 344 | 0.0 | 3.0 | 0.02 | 0.35 | 0.13 | 94 | 1006.2 |
| 20260903144537 | 54 | 193 | 0.0 | 2.0 | 0.03 | 0.35 | 0.13 | 94 | 1006.1 |
| 20260903143034 | 54 | 165 | 0.0 | 3.0 | 0.03 | 0.34 | 0.12 | 94 | 1006.0 |
| 20260903141539 | 54 | 169 | 1.0 | 3.0 | 0.04 | 0.34 | 0.12 | 94 | 1006.0 |
| 20260903140039 | 54 | 295 | 0.0 | 2.0 | 0.08 | 0.33 | 0.11 | 94 | 1005.8 |
| 20260903134529 | 54 | 292 | 0.0 | 2.0 | 0.10 | 0.32 | 0.10 | 93 | 1005.6 |
| 20260903133028 | 55 | 153 | 0.0 | 2.0 | 0.09 | 0.31 | 0.09 | 93 | 1005.5 |
| 20260903131527 | 55 | 155 | 0.0 | 2.0 | 0.07 | 0.28 | 0.07 | 92 | 1005.6 |
| 20260903130023 | 55 | 156 | 0.0 | 4.0 | 0.03 | 0.25 | 0.03 | 91 | 1005.6 |
| 20260903124522 | 56 | 355 | 1.0 | 3.0 | 0.00 | 0.22 | 0.00 | 89 | 1005.6 |